[[{"header":{"parameterUnit":"m.s-1","parameterCategory":1,"la1":30.2991,"la2":30.254,"lo1":-89.0895,"lo2":-89.0444,"dy":0.0017,"dx":0.0017,"nx":28,"ny":28,"refTime":"2024-03-12T21:00:00:Z","depth":0,"parameterNumber":2,"parameterNumberName":"U-component_of_WINDS"},"data":[0,0,0,0,0,0,0,0,0,0,0,0,0,0,0,0,0,0,0,0,0,0,0,0,0,0,0,0,0,0,0,0,0,0,0,0,0,0,0,0,0,0,0,0,0,0,0,0,0,0,0,0,0,0,0,0,0,0,-4.0762,-4.0762,0,-4.0818,-4.0819,-4.0819,-4.0772,-4.077,-4.0768,-4.0766,-4.0823,-4.0827,-4.083,0,0,0,0,0,0,0,0,0,0,0,0,0,-4.0613,-4.0616,-4.0762,-4.0762,-4.0763,-4.0818,-4.0819,-4.082,-4.0772,-4.077,-4.0767,-4.0765,-4.0822,-4.0826,-4.083,0,0,0,0,0,0,0,0,0,0,0,0,0,-4.0674,-4.0617,-4.0761,-4.0746,-4.0745,-4.0818,-4.0819,-4.082,-4.0773,-4.077,-4.0767,-4.0764,-4.0821,-4.0826,-4.0831,-4.0922,0,0,-4.0846,-4.0848,0,0,0,0,0,0,0,0,-4.0671,-4.068,-4.0748,-4.0747,-4.0746,-4.0785,-4.0787,-4.0854,-4.0773,-4.0762,-4.0766,-4.0762,-4.0813,-4.0818,-4.0836,-4.0924,-4.0927,-4.0847,-4.085,-4.0852,-4.0853,0,0,0,0,0,0,0,-4.0667,-4.0677,-4.0784,-4.0749,-4.0748,-4.0736,-4.0742,-4.08,-4.0804,-4.0763,-4.076,-4.0767,-4.0812,-4.0831,-4.0837,-4.0928,-4.0847,-4.0851,-4.0854,-4.0856,-4.1094,-4.1097,0,0,0,0,0,0,-4.0664,-4.0674,-4.0782,-4.0786,-4.0701,-4.0741,-4.0747,-4.0776,-4.0803,-4.0804,-4.077,-4.0765,-4.0824,-4.0831,-4.0838,-4.0946,-4.0852,-4.0857,-4.086,-4.1091,-4.1095,-4.1098,0,0,0,0,0,0,-4.0661,-4.0674,-4.078,-4.0729,-4.0741,-4.0747,-4.0779,-4.0778,-4.0797,-4.0808,-4.0808,-4.0788,-4.0822,-4.0831,-4.0901,-4.0947,-4.0859,-4.0864,-4.1087,-4.1092,-4.1096,-4.1162,0,0,0,0,0,0,-4.0657,-4.0673,-4.0708,-4.073,-4.0744,-4.0842,-4.0782,-4.0781,-4.0806,-4.08,-4.0825,-4.0826,-4.082,-4.0894,-4.0906,-4.0952,-4.0868,-4.1083,-4.1089,-4.1095,-4.1156,-4.1168,-4.1179,0,0,0,0,0,-4.0652,-4.0724,-4.071,-4.0723,-4.0787,-4.0844,-4.0853,-4.0844,-4.081,-4.0844,-4.0851,-4.0826,-4.0941,-4.0902,-4.0915,-4.0963,-4.108,-4.1087,-4.1094,-4.115,-4.1166,-4.1179,0,0,0,0,0,0,-4.0706,-4.0726,-4.0711,-4.0792,-4.0817,-4.0836,-4.0879,-4.0861,-4.0896,-4.0889,-4.0876,-4.0882,-4.0956,-4.0967,-4.0923,-4.1053,-4.1005,-4.1015,-4.1043,-4.1058,-4.1069,-4.1064,-4.0872,0,0,0,0,0,-4.0727,-4.0772,-4.0787,-4.0858,-4.0871,-4.0874,-4.0898,-4.0889,-4.0914,-4.0925,-4.0937,-4.0962,-4.1004,-4.1032,-4.1071,-4.1158,-4.1162,-4.1198,-4.121,-4.122,-4.1228,-4.1275,-4.129,-4.1122,-4.1122,-4.1122,0,0,-4.0771,-4.0788,-4.0817,-4.0869,-4.0887,-4.0934,-4.0882,-4.0934,-4.0968,-4.0932,-4.0999,-4.1009,-4.1037,-4.1116,-4.1151,-4.1127,-4.1276,-4.1229,-4.1237,-4.124,-4.1284,-4.13,-4.1314,-4.1127,-4.1126,-4.1126,0,0,-4.0876,-4.0894,-4.0954,-4.0973,-4.1002,-4.1003,-4.1018,-4.1041,-4.1046,-4.1114,-4.1088,-4.1129,-4.1201,-4.1222,-4.1242,-4.1357,-4.1334,-4.137,-4.1431,-4.1477,-4.149,-4.1502,-4.1541,-4.1556,-4.1379,-4.1379,-4.1379,0,-4.0927,-4.0996,-4.0987,-4.104,-4.1064,-4.1035,-4.1096,-4.1115,-4.1155,-4.1172,-4.1145,-4.1236,-4.1253,-4.1336,-4.1364,-4.1382,-4.1398,-4.1366,-4.1489,-4.1501,-4.1511,-4.1549,-4.1564,-4.1383,-4.1383,-4.1382,-4.1382,0,-4.1057,-4.1105,-4.1151,-4.119,-4.1219,-4.1276,-4.1276,-4.1307,-4.1297,-4.1301,-4.137,-4.1389,-4.1432,-4.1452,-4.1442,-4.1534,-4.1518,-4.1491,-4.1441,-4.1532,-4.1567,-4.1581,-4.1389,-4.1388,-4.1386,-4.1385,0,0,-4.1194,-4.1229,-4.1246,-4.1264,-4.1294,-4.1331,-4.1388,-4.143,-4.1456,-4.1486,-4.1532,-4.1595,-4.157,-4.1593,-4.1586,-4.1626,-4.1715,-4.1594,-4.1594,-4.1614,-4.1816,-4.1835,-4.1852,-4.1701,-4.1704,-4.1706,-4.1814,0,-4.1298,-4.1395,-4.139,-4.1481,-4.1525,-4.15,-4.1549,-4.1573,-4.158,-4.1619,-4.1626,-4.167,-4.1635,-4.1648,-4.1687,-4.1696,-4.1755,-4.1688,-4.1743,-4.1745,-4.1735,-4.1871,-4.189,-4.1991,-4.1827,-4.183,-4.1831,0,-4.1431,-4.1466,-4.1562,-4.1586,-4.1605,-4.1649,-4.1687,-4.1725,-4.1753,-4.1754,-4.1781,-4.1768,-4.1825,-4.1777,-4.1855,-4.181,-4.1833,-4.1841,-4.1844,-4.1847,-4.1792,-4.1875,-4.2023,-4.2037,-4.1853,-4.1852,-4.185,0,-4.152,-4.159,-4.1657,-4.1673,-4.1704,-4.1735,-4.175,-4.1774,-4.18,-4.1834,-4.1851,-4.1892,-4.1913,-4.1945,-4.1943,-4.1909,-4.2023,-4.1974,-4.2025,-4.2025,-4.2048,-4.2046,-4.2199,-4.2067,-4.2066,-4.2066,-4.2066,0,-4.1635,-4.1694,-4.1697,-4.1737,-4.1803,-4.1797,-4.1862,-4.1874,-4.1896,-4.1938,-4.192,-4.196,-4.1956,-4.1997,-4.1997,-4.2061,-4.2072,-4.2074,-4.2073,-4.2075,-4.2074,-4.2087,-4.2079,-4.207,-4.2069,-4.2068,-4.2068,0,-4.1743,-4.1747,-4.1818,-4.1842,-4.185,-4.1897,-4.1917,-4.1956,-4.1962,-4.2016,-4.2028,-4.2037,-4.2085,-4.2087,-4.2141,-4.2141,-4.2219,-4.2211,-4.2209,-4.2207,-4.2257,-4.2251,-4.2422,-4.2443,-4.2299,-4.2301,-4.2302,0,-4.1815,-4.186,-4.189,-4.1917,-4.1933,-4.1977,-4.2004,-4.2001,-4.203,-4.2065,-4.21,-4.2145,-4.2181,-4.2258,-4.2269,-4.2311,-4.2303,-4.236,-4.2309,-4.2309,-4.2301,-4.2298,-4.2302,-4.2369,-4.237,-4.2372,-4.2373,0,-4.1942,-4.1943,-4.1982,-4.2022,-4.2055,-4.2087,-4.2116,-4.214,-4.214,-4.2173,-4.2221,-4.2249,-4.2306,-4.2351,-4.2392,-4.2407,-4.239,-4.2389,-4.2403,-4.2403,-4.24,-4.2401,-4.2234,-4.2384,-4.2383,-4.2382,-4.2382,-4.2381,-4.2033,-4.2072,-4.2099,-4.2144,-4.2166,-4.2194,-4.2232,-4.2243,-4.2283,-4.2328,-4.2325,-4.2378,-4.2405,-4.2459,-4.2477,-4.2519,-4.2499,-4.252,-4.2524,-4.2529,-4.2533,-4.2396,-4.2527,-4.2527,-4.2526,-4.2526,-4.2526,0,-4.2158,-4.2175,-4.2216,-4.2258,-4.2293,-4.2276,-4.2308,-4.2338,-4.2385,-4.2413,-4.2449,-4.2505,-4.2549,-4.2565,-4.2609,-4.2639,-4.2632,-4.265,-4.2647,-4.265,-4.2549,-4.2532,-4.2655,-4.2655,-4.2655,-4.2655,-4.2655,-4.2655,-4.2227,-4.2291,-4.2295,-4.2371,-4.2387,-4.2439,-4.2459,-4.2485,-4.2507,-4.257,-4.2607,-4.2617,-4.264,-4.2685,-4.2726,-4.2729,-4.2745,-4.2766,-4.2766,-4.2671,-4.2658,-4.2645,-4.2629,-4.277,-4.277,-4.2864,-4.2865,-4.2865]},{"header":{"parameterUnit":"m.s-1","parameterCategory":1,"la1":30.2991,"la2":30.254,"lo1":-89.0895,"lo2":-89.0444,"dy":0.0017,"dx":0.0017,"nx":28,"ny":28,"refTime":"2024-03-12T21:00:00:Z","depth":0,"parameterNumber":3,"parameterNumberName":"V-component_of_WINDS"},"data":[0,0,0,0,0,0,0,0,0,0,0,0,0,0,0,0,0,0,0,0,0,0,0,0,0,0,0,0,0,0,0,0,0,0,0,0,0,0,0,0,0,0,0,0,0,0,0,0,0,0,0,0,0,0,0,0,0,0,1.4297,1.4297,0,1.4356,1.4357,1.4358,1.4403,1.4403,1.4404,1.4404,1.4463,1.4464,1.4465,0,0,0,0,0,0,0,0,0,0,0,0,0,1.4221,1.4222,1.4297,1.4297,1.4298,1.4356,1.4357,1.4358,1.4403,1.4403,1.4404,1.4404,1.4462,1.4464,1.4465,0,0,0,0,0,0,0,0,0,0,0,0,0,1.4265,1.4223,1.4296,1.4328,1.4331,1.4356,1.4357,1.4358,1.4403,1.4403,1.4404,1.4404,1.4462,1.4463,1.4465,1.4463,0,0,1.4471,1.4471,0,0,0,0,0,0,0,0,1.4262,1.4267,1.4322,1.4325,1.4329,1.4373,1.4352,1.4393,1.4402,1.4375,1.4404,1.4405,1.4432,1.4436,1.4446,1.4466,1.4469,1.4471,1.4472,1.4473,1.4473,0,0,0,0,0,0,0,1.4259,1.4265,1.432,1.4323,1.4327,1.4338,1.4345,1.436,1.4399,1.4378,1.4381,1.4388,1.4434,1.4444,1.4448,1.447,1.4471,1.4472,1.4473,1.4474,1.4494,1.4493,0,0,0,0,0,0,1.4251,1.4262,1.4318,1.4322,1.4297,1.4339,1.4347,1.4358,1.4399,1.4406,1.4387,1.439,1.4441,1.4446,1.445,1.4452,1.4473,1.4474,1.4475,1.4494,1.4494,1.4493,0,0,0,0,0,0,1.4249,1.4256,1.4316,1.4293,1.4302,1.434,1.4352,1.4359,1.4369,1.4406,1.4414,1.439,1.4442,1.4447,1.4461,1.4455,1.4475,1.4477,1.4495,1.4494,1.4493,1.4456,0,0,0,0,0,0,1.4247,1.4255,1.4255,1.4293,1.4303,1.4325,1.4352,1.436,1.4372,1.4376,1.4411,1.4418,1.4443,1.4458,1.4462,1.4458,1.4478,1.4496,1.4495,1.4494,1.4458,1.4454,1.4451,0,0,0,0,0,1.4244,1.424,1.4254,1.4261,1.4303,1.4325,1.4331,1.436,1.4372,1.4372,1.4396,1.4417,1.4455,1.4459,1.4464,1.446,1.4496,1.4495,1.4494,1.4459,1.4455,1.4451,0,0,0,0,0,0,1.4199,1.4246,1.4262,1.427,1.4294,1.4333,1.4333,1.4354,1.4373,1.4376,1.4411,1.4418,1.4428,1.4445,1.4449,1.4462,1.4478,1.4478,1.445,1.4446,1.4442,1.4438,1.4479,0,0,0,0,0,1.419,1.4205,1.4245,1.4248,1.4259,1.4294,1.4305,1.4326,1.4351,1.4361,1.4386,1.4409,1.4427,1.4437,1.4455,1.4461,1.447,1.4461,1.4457,1.4454,1.4453,1.446,1.4457,1.4489,1.4489,1.4489,0,0,1.4172,1.4199,1.4206,1.424,1.4261,1.4275,1.4302,1.4315,1.4327,1.4362,1.4377,1.4396,1.4425,1.4434,1.444,1.4449,1.4447,1.4452,1.445,1.4451,1.4458,1.4455,1.4452,1.4489,1.4489,1.4489,0,0,1.4146,1.4168,1.4174,1.4195,1.4226,1.425,1.4252,1.4288,1.4303,1.4319,1.4347,1.436,1.4389,1.4409,1.4422,1.4407,1.4427,1.4411,1.4392,1.4398,1.4396,1.4393,1.4389,1.4387,1.4411,1.4411,1.4411,0,1.4119,1.4142,1.4175,1.4188,1.4202,1.4237,1.4245,1.4263,1.4297,1.4307,1.4317,1.4356,1.4377,1.4393,1.439,1.4399,1.4403,1.4407,1.4393,1.4392,1.439,1.4386,1.4385,1.4409,1.4409,1.4409,1.4409,0,1.4108,1.4124,1.4125,1.416,1.4175,1.4185,1.4219,1.4231,1.4251,1.4274,1.429,1.4317,1.4342,1.4347,1.4366,1.4367,1.4372,1.4387,1.4404,1.4385,1.4382,1.438,1.4406,1.4407,1.4407,1.4408,0,0,1.4054,1.4109,1.4109,1.4126,1.4165,1.4177,1.4189,1.4215,1.4225,1.4248,1.426,1.4284,1.43,1.4315,1.4337,1.4342,1.433,1.4357,1.4359,1.4352,1.4334,1.4322,1.432,1.4344,1.4343,1.4343,1.4332,0,1.4035,1.4059,1.409,1.4104,1.412,1.4154,1.4165,1.4189,1.4211,1.4228,1.4252,1.427,1.4288,1.4298,1.4305,1.433,1.4327,1.4331,1.4355,1.4355,1.4347,1.4319,1.4306,1.4294,1.4331,1.4331,1.433,0,1.4015,1.4039,1.4055,1.4094,1.4102,1.4111,1.4138,1.4154,1.4183,1.4199,1.4217,1.4242,1.4256,1.4272,1.4293,1.4296,1.4307,1.4322,1.4322,1.4325,1.4342,1.4322,1.429,1.4289,1.4329,1.4329,1.4329,0,1.3976,1.4012,1.4027,1.404,1.4086,1.4092,1.4111,1.4141,1.4155,1.4179,1.4189,1.4213,1.4227,1.4246,1.4276,1.4284,1.4295,1.4312,1.4309,1.4308,1.4309,1.4309,1.428,1.4316,1.4316,1.4316,1.4316,0,1.3952,1.396,1.401,1.4019,1.403,1.4066,1.4076,1.4098,1.4125,1.4139,1.417,1.4182,1.4221,1.4239,1.4262,1.4278,1.4283,1.4297,1.4303,1.4294,1.4293,1.4302,1.4304,1.4315,1.4315,1.4315,1.4316,0,1.391,1.3943,1.3962,1.4004,1.4015,1.4022,1.4058,1.4068,1.4093,1.4111,1.4117,1.4155,1.4178,1.421,1.4241,1.4258,1.4269,1.4279,1.426,1.4264,1.4259,1.4259,1.4236,1.4235,1.427,1.4269,1.4269,0,1.3892,1.39,1.3944,1.3957,1.3975,1.3994,1.401,1.4046,1.4061,1.4096,1.4102,1.4127,1.4149,1.4183,1.4214,1.4238,1.425,1.424,1.4253,1.4245,1.4251,1.425,1.4252,1.4236,1.4236,1.4235,1.4235,0,1.3858,1.3875,1.3897,1.3925,1.3943,1.3966,1.3991,1.3999,1.4041,1.4056,1.408,1.4097,1.4131,1.4155,1.4185,1.4204,1.4227,1.4231,1.4231,1.4223,1.4212,1.4219,1.4252,1.4231,1.4231,1.4232,1.4232,1.4232,1.3829,1.3838,1.3871,1.3895,1.3918,1.3941,1.3954,1.3981,1.4002,1.4033,1.4053,1.4076,1.4107,1.4149,1.4168,1.4187,1.4196,1.4196,1.4197,1.4196,1.4194,1.4209,1.4192,1.4192,1.4192,1.4192,1.4192,0,1.3797,1.3821,1.3843,1.3878,1.3896,1.3917,1.3947,1.3961,1.3981,1.4009,1.4031,1.4059,1.4084,1.4117,1.4144,1.4153,1.4164,1.4159,1.4159,1.4163,1.4183,1.4181,1.415,1.415,1.415,1.415,1.415,1.415,1.3783,1.3801,1.3822,1.3852,1.3875,1.39,1.3915,1.3936,1.3959,1.399,1.4011,1.4033,1.4063,1.4093,1.4117,1.4126,1.4135,1.4127,1.414,1.4158,1.4162,1.4165,1.4163,1.4129,1.4129,1.4118,1.4118,1.4118]}]]